Location: Gull Harbor
(47.1000°N, 122.9000°W)
Time: 19:56:54
(UTC-07:00)

STARLINK-2701 - Pass Details

Date: 01 August 2021
Orbit: 546 x 548 km, 53.1° (Epoch: 24 September)

Event Time Altitude Azimuth Distance (km) Brightness Sun altitude
Rises 21:19:45 0° 293° (WNW) 2,724 9.3 -6.1°
Reaches altitude 10° 21:22:18 10° 279° (W) 1,826 7.5 -6.4°
Maximum altitude 21:25:37 23° 226° (SW) 1,181 5.4 -6.9°
Drops below altitude 10° 21:28:55 10° 173° (S) 1,815 5.9 -7.4°
Enters shadow 21:30:21 - 163° (SSE) 2,305 6.3 -7.6°
